TimePST,TemperatureF,Dew PointF,Humidity,Sea Level PressureIn,VisibilityMPH,Wind Direction,Wind SpeedMPH,Gust SpeedMPH,PrecipitationIn,Events,Conditions,WindDirDegrees,DateUTC
12:53 AM,54.0,48.9,83,29.93,10.0,NNW,5.8,-,N/A,,Clear,330,2011-11-14 08:53:00
1:53 AM,54.0,48.0,80,29.91,10.0,NNW,4.6,-,N/A,,Clear,340,2011-11-14 09:53:00
2:53 AM,53.1,48.0,83,29.90,10.0,NW,5.8,-,N/A,,Clear,320,2011-11-14 10:53:00
3:53 AM,52.0,48.9,89,29.89,10.0,Calm,Calm,-,N/A,,Clear,0,2011-11-14 11:53:00
4:53 AM,52.0,48.0,86,29.89,10.0,NNW,3.5,-,N/A,,Clear,340,2011-11-14 12:53:00
5:53 AM,52.0,46.9,83,29.91,10.0,Calm,Calm,-,N/A,,Clear,0,2011-11-14 13:53:00
6:53 AM,54.0,48.0,80,29.92,10.0,NW,3.5,-,N/A,,Clear,320,2011-11-14 14:53:00
7:53 AM,60.1,48.9,67,29.93,10.0,Calm,Calm,-,N/A,,Clear,0,2011-11-14 15:53:00
8:53 AM,64.0,50.0,60,29.94,10.0,ESE,4.6,-,N/A,,Clear,120,2011-11-14 16:53:00
9:53 AM,66.0,50.0,56,29.93,10.0,SE,3.5,-,N/A,,Clear,130,2011-11-14 17:53:00
10:53 AM,69.1,48.9,49,29.91,10.0,ESE,6.9,-,N/A,,Clear,120,2011-11-14 18:53:00
11:53 AM,72.0,48.0,43,29.88,10.0,East,6.9,-,N/A,,Clear,100,2011-11-14 19:53:00
12:53 PM,72.0,46.9,41,29.85,10.0,ESE,9.2,-,N/A,,Clear,110,2011-11-14 20:53:00
1:53 PM,73.0,46.0,38,29.84,10.0,East,6.9,-,N/A,,Clear,100,2011-11-14 21:53:00
2:53 PM,73.0,46.0,38,29.84,10.0,East,6.9,-,N/A,,Clear,90,2011-11-14 22:53:00
3:53 PM,72.0,46.0,40,29.85,10.0,ENE,3.5,-,N/A,,Clear,70,2011-11-14 23:53:00
4:53 PM,69.8,48.2,46,29.85,10.0,Calm,Calm,-,N/A,,Clear,0,2011-11-15 00:53:00
5:53 PM,66.9,48.9,52,29.88,10.0,Calm,Calm,-,N/A,,Clear,0,2011-11-15 01:53:00
6:53 PM,63.0,50.0,63,29.90,10.0,South,4.6,-,N/A,,Clear,180,2011-11-15 02:53:00
7:53 PM,64.0,50.0,60,29.91,10.0,Calm,Calm,-,N/A,,Clear,0,2011-11-15 03:53:00
8:53 PM,62.1,50.0,65,29.93,10.0,NW,4.6,-,N/A,,Clear,320,2011-11-15 04:53:00
9:53 PM,61.0,48.0,62,29.94,10.0,Calm,Calm,-,N/A,,Clear,0,2011-11-15 05:53:00
10:53 PM,61.0,46.9,60,29.95,10.0,Calm,Calm,-,N/A,,Clear,0,2011-11-15 06:53:00
11:53 PM,57.9,48.9,72,29.95,10.0,NNW,8.1,-,N/A,,Clear,340,2011-11-15 07:53:00